Location: Zapote
(9.9191°N, 84.0597°W)
Time: 03:33:45
(UTC-06:00)

Hubble Space Telescope - Pass Details

Date: 28 January 2021
Orbit: 536 x 539 km, 28.5° (Epoch: 28 February)

Event Time Altitude Azimuth Distance (km) Brightness Sun altitude
Rises 18:38:59 0° 309° (NW) 2,669 4.8 -14.7°
Reaches altitude 10° 18:41:21 10° 317° (NW) 1,779 3.8 -15.3°
Maximum altitude 18:45:11 37° 26° (NNE) 836 1.4 -16.2°
Enters shadow 18:46:10 32° 58° (ENE) 928 1.4 -16.4°
